Time,TemperatureF,DewpointF,PressureIn,WindDirection,WindDirectionDegrees,WindSpeedMPH,WindSpeedGustMPH,Humidity,HourlyPrecipIn,Conditions,Clouds,dailyrainin,SoftwareType,DateUTC
2013-04-14 00:00:00,52.9,27.3,29.97,SSW,202,0.0,0.0,37,0.00,,---,0.00,VWS V14.00,2013-04-14 04:00:00,
2013-04-14 00:02:00,52.7,27.2,29.97,SSW,202,0.0,0.0,37,0.00,,---,0.00,VWS V14.00,2013-04-14 04:02:00,
2013-04-14 05:35:00,50.0,24.8,29.97,South,180,0.0,0.0,37,77.22,,---,0.00,VWS V14.00,2013-04-14 09:35:00,
2013-04-14 05:36:00,52.0,26.5,29.97,South,180,2.5,2.5,37,0.00,,---,0.00,VWS V14.00,2013-04-14 09:36:00,
2013-04-14 05:40:00,49.6,24.5,29.97,South,180,0.0,0.0,37,0.00,,---,0.00,VWS V14.00,2013-04-14 09:40:00,
2013-04-14 05:41:00,49.6,24.5,29.97,South,180,0.0,0.0,37,0.00,,---,0.00,VWS V14.00,2013-04-14 09:41:00,
2013-04-14 05:46:00,49.6,24.5,29.97,South,180,0.0,0.0,37,0.00,,---,0.00,VWS V14.00,2013-04-14 09:46:00,
2013-04-14 05:47:00,49.8,24.6,29.97,South,180,0.0,0.0,37,0.00,,---,0.00,VWS V14.00,2013-04-14 09:47:00,
2013-04-14 05:48:00,50.0,24.8,29.97,South,180,0.0,0.0,37,0.00,,---,0.00,VWS V14.00,2013-04-14 09:48:00,
2013-04-14 05:52:00,50.0,24.8,29.97,South,180,0.0,0.9,37,0.00,,---,0.00,VWS V14.00,2013-04-14 09:52:00,
2013-04-14 05:53:00,50.0,24.8,29.97,South,180,0.0,0.0,37,0.00,,---,0.00,VWS V14.00,2013-04-14 09:53:00,
2013-04-14 05:56:00,50.0,24.8,29.97,South,180,0.0,0.0,37,0.00,,---,0.00,VWS V14.00,2013-04-14 09:56:00,
2013-04-14 05:58:00,50.0,24.8,29.97,South,180,0.0,0.0,37,0.00,,---,0.00,VWS V14.00,2013-04-14 09:58:00,
2013-04-14 06:00:00,49.8,24.6,29.97,South,180,0.0,0.0,37,0.00,,---,0.00,VWS V14.00,2013-04-14 10:00:00,
2013-04-14 06:01:00,49.6,24.5,29.97,South,180,0.0,0.0,37,0.00,,---,0.00,VWS V14.00,2013-04-14 10:01:00,
2013-04-14 06:04:00,49.3,24.1,29.97,South,180,0.0,0.0,37,0.00,,---,0.00,VWS V14.00,2013-04-14 10:04:00,
2013-04-14 06:05:00,49.3,24.1,29.97,South,180,0.0,0.0,37,0.00,,---,0.00,VWS V14.00,2013-04-14 10:05:00,
2013-04-14 06:06:00,49.1,24.0,29.97,South,180,0.0,0.0,37,0.00,,---,0.00,VWS V14.00,2013-04-14 10:06:00,
2013-04-14 06:07:00,49.1,24.0,29.97,South,180,0.0,0.0,37,0.00,,---,0.00,VWS V14.00,2013-04-14 10:07:00,
2013-04-14 06:09:00,48.9,23.8,29.97,South,180,0.0,0.0,37,0.00,,---,0.00,VWS V14.00,2013-04-14 10:09:00,
2013-04-14 06:11:00,48.7,23.6,29.97,South,180,0.0,0.0,37,0.00,,---,0.00,VWS V14.00,2013-04-14 10:11:00,
2013-04-14 06:14:00,48.7,23.6,29.97,South,180,0.0,0.0,37,0.00,,---,0.00,VWS V14.00,2013-04-14 10:14:00,
2013-04-14 06:16:00,48.7,23.6,29.97,South,180,0.0,0.0,37,0.00,,---,0.00,VWS V14.00,2013-04-14 10:16:00,
2013-04-14 06:19:00,48.6,23.5,30.00,South,180,0.0,0.0,37,0.00,,---,0.00,VWS V14.00,2013-04-14 10:19:00,
2013-04-14 06:21:00,48.7,23.6,30.00,South,180,0.0,0.0,37,0.00,,---,0.00,VWS V14.00,2013-04-14 10:21:00,
2013-04-14 06:24:00,48.7,24.3,30.00,South,180,0.0,0.0,38,0.00,,---,0.00,VWS V14.00,2013-04-14 10:24:00,
2013-04-14 06:25:00,48.7,23.6,30.00,South,180,0.0,0.0,37,0.00,,---,0.00,VWS V14.00,2013-04-14 10:25:00,
2013-04-14 06:29:00,48.6,23.5,30.00,South,180,0.0,0.0,37,0.00,,---,0.00,VWS V14.00,2013-04-14 10:29:00,
2013-04-14 06:31:00,48.6,23.5,30.00,South,180,0.0,0.0,37,0.00,,---,0.00,VWS V14.00,2013-04-14 10:31:00,
2013-04-14 06:35:00,48.7,24.3,30.00,South,180,0.0,0.0,38,0.00,,---,0.00,VWS V14.00,2013-04-14 10:35:00,
2013-04-14 06:37:00,48.7,24.3,30.00,South,180,0.0,0.0,38,0.00,,---,0.00,VWS V14.00,2013-04-14 10:37:00,
2013-04-14 06:42:00,49.1,24.6,30.00,South,180,0.0,0.0,38,0.00,,---,0.00,VWS V14.00,2013-04-14 10:42:00,
2013-04-14 06:44:00,49.1,24.6,30.00,South,180,0.0,0.0,38,0.00,,---,0.00,VWS V14.00,2013-04-14 10:44:00,
2013-04-14 06:46:00,49.3,24.8,30.00,South,180,0.0,0.0,38,0.00,,---,0.00,VWS V14.00,2013-04-14 10:46:00,
2013-04-14 06:47:00,49.5,24.9,30.00,South,180,0.0,0.0,38,0.00,,---,0.00,VWS V14.00,2013-04-14 10:47:00,
2013-04-14 06:52:00,50.4,25.7,30.03,South,180,1.1,1.3,38,0.00,,---,0.00,VWS V14.00,2013-04-14 10:52:00,
2013-04-14 06:55:00,50.9,26.2,30.03,South,180,0.0,0.0,38,0.00,,---,0.00,VWS V14.00,2013-04-14 10:55:00,
2013-04-14 06:57:00,51.1,26.4,30.03,South,180,0.0,0.0,38,0.00,,---,0.00,VWS V14.00,2013-04-14 10:57:00,
2013-04-14 07:01:00,51.4,26.7,30.03,SSW,202,0.0,0.0,38,0.00,,---,0.00,VWS V14.00,2013-04-14 11:01:00,
2013-04-14 07:04:00,51.8,26.4,30.03,SSW,202,0.0,0.0,37,0.00,,---,0.00,VWS V14.00,2013-04-14 11:04:00,
2013-04-14 07:06:00,52.0,26.5,30.03,SSW,202,0.0,0.0,37,0.00,,---,0.00,VWS V14.00,2013-04-14 11:06:00,
2013-04-14 07:09:00,51.6,26.9,30.03,SSW,202,0.0,0.0,38,0.00,,---,0.00,VWS V14.00,2013-04-14 11:09:00,
2013-04-14 07:11:00,52.0,26.5,30.03,SSW,202,0.0,0.0,37,0.00,,---,0.00,VWS V14.00,2013-04-14 11:11:00,
2013-04-14 07:14:00,52.3,26.9,30.03,SSW,202,0.0,0.0,37,0.00,,---,0.00,VWS V14.00,2013-04-14 11:14:00,
2013-04-14 07:15:00,52.3,26.9,30.03,SSW,202,0.0,0.0,37,0.00,,---,0.00,VWS V14.00,2013-04-14 11:15:00,
2013-04-14 07:18:00,52.0,26.5,30.03,WSW,248,2.9,2.9,37,0.00,,---,0.00,VWS V14.00,2013-04-14 11:18:00,
2013-04-14 07:21:00,52.5,27.0,30.00,WSW,248,0.0,0.0,37,0.00,,---,0.00,VWS V14.00,2013-04-14 11:21:00,
2013-04-14 07:23:00,52.9,27.3,30.00,WSW,248,0.0,0.0,37,0.00,,---,0.00,VWS V14.00,2013-04-14 11:23:00,
2013-04-14 07:24:00,53.2,27.7,30.00,WSW,248,0.0,0.0,37,0.00,,---,0.00,VWS V14.00,2013-04-14 11:24:00,
2013-04-14 07:27:00,53.4,27.8,30.00,WSW,248,0.0,0.0,37,0.00,,---,0.00,VWS V14.00,2013-04-14 11:27:00,
2013-04-14 07:28:00,53.6,27.3,30.00,WSW,248,0.0,0.0,36,0.00,,---,0.00,VWS V14.00,2013-04-14 11:28:00,
2013-04-14 07:31:00,53.8,27.5,30.00,WSW,248,0.0,0.0,36,0.00,,---,0.00,VWS V14.00,2013-04-14 11:31:00,
2013-04-14 07:32:00,53.6,27.3,30.00,SSW,202,0.0,2.0,36,0.00,,---,0.00,VWS V14.00,2013-04-14 11:32:00,
2013-04-14 07:34:00,53.8,27.5,30.03,SSW,202,0.0,0.0,36,0.00,,---,0.00,VWS V14.00,2013-04-14 11:34:00,
2013-04-14 07:36:00,54.1,28.5,30.03,SSW,202,0.0,0.0,37,0.00,,---,0.00,VWS V14.00,2013-04-14 11:36:00,
2013-04-14 07:39:00,54.5,28.8,30.03,WSW,248,0.0,0.0,37,0.00,,---,0.00,VWS V14.00,2013-04-14 11:39:00,
2013-04-14 07:40:00,54.3,28.0,30.03,WSW,248,3.1,3.1,36,0.00,,---,0.00,VWS V14.00,2013-04-14 11:40:00,
2013-04-14 07:42:00,55.4,28.9,30.03,WSW,248,0.0,0.0,36,0.00,,---,0.00,VWS V14.00,2013-04-14 11:42:00,
2013-04-14 07:45:00,55.0,27.9,30.03,West,270,0.0,4.0,35,0.00,,---,0.00,VWS V14.00,2013-04-14 11:45:00,
2013-04-14 07:48:00,55.0,27.2,30.03,WSW,248,3.1,5.4,34,0.00,,---,0.00,VWS V14.00,2013-04-14 11:48:00,
2013-04-14 07:50:00,55.2,25.1,30.03,West,270,3.4,3.4,31,0.00,,---,0.00,VWS V14.00,2013-04-14 11:50:00,
2013-04-14 07:54:00,54.3,21.9,30.03,WSW,248,2.7,4.7,28,0.00,,---,0.00,VWS V14.00,2013-04-14 11:54:00,
2013-04-14 07:55:00,54.1,21.8,30.03,WSW,248,3.4,4.0,28,0.00,,---,0.00,VWS V14.00,2013-04-14 11:55:00,
2013-04-14 07:56:00,53.8,20.6,30.03,West,270,1.6,4.9,27,0.00,,---,0.00,VWS V14.00,2013-04-14 11:56:00,
2013-04-14 07:59:00,54.7,22.2,30.03,WSW,248,2.2,2.2,28,0.00,,---,0.00,VWS V14.00,2013-04-14 11:59:00,
2013-04-14 08:00:00,54.7,22.2,30.03,WSW,248,3.1,3.1,28,0.00,,---,0.00,VWS V14.00,2013-04-14 12:00:00,
2013-04-14 08:02:00,54.7,23.1,30.03,WNW,292,2.9,3.1,29,0.00,,---,0.00,VWS V14.00,2013-04-14 12:02:00,
2013-04-14 08:04:00,54.5,22.1,30.03,West,270,2.2,3.4,28,0.00,,---,0.00,VWS V14.00,2013-04-14 12:04:00,
2013-04-14 08:05:00,54.7,23.1,30.03,West,270,0.0,2.2,29,0.00,,---,0.00,VWS V14.00,2013-04-14 12:05:00,
2013-04-14 08:07:00,54.9,22.4,30.03,WNW,292,2.7,4.3,28,0.00,,---,0.00,VWS V14.00,2013-04-14 12:07:00,
2013-04-14 08:08:00,55.0,23.4,30.03,West,270,0.0,2.7,29,0.00,,---,0.00,VWS V14.00,2013-04-14 12:08:00,
2013-04-14 08:10:00,55.6,23.9,30.03,WSW,248,0.0,0.0,29,0.00,,---,0.00,VWS V14.00,2013-04-14 12:10:00,
2013-04-14 08:13:00,56.3,24.5,30.03,WSW,248,2.5,2.7,29,0.00,,---,0.00,VWS V14.00,2013-04-14 12:13:00,
2013-04-14 08:15:00,56.3,24.5,30.03,WSW,248,2.5,2.5,29,0.00,,---,0.00,VWS V14.00,2013-04-14 12:15:00,
2013-04-14 08:16:00,56.7,24.0,30.03,WSW,248,0.0,2.5,28,0.00,,---,0.00,VWS V14.00,2013-04-14 12:16:00,
2013-04-14 08:19:00,57.0,24.3,30.00,West,270,0.0,1.1,28,0.00,,---,0.00,VWS V14.00,2013-04-14 12:19:00,
2013-04-14 08:20:00,57.4,24.6,30.00,WSW,248,0.0,0.0,28,0.00,,---,0.00,VWS V14.00,2013-04-14 12:20:00,
2013-04-14 08:21:00,57.6,24.7,30.00,WNW,292,2.0,2.0,28,0.00,,---,0.00,VWS V14.00,2013-04-14 12:21:00,
2013-04-14 08:23:00,57.7,24.0,30.00,NW,315,1.3,3.1,27,0.00,,---,0.00,VWS V14.00,2013-04-14 12:23:00,
2013-04-14 08:25:00,57.7,24.0,30.00,WNW,292,1.3,2.5,27,0.00,,---,0.00,VWS V14.00,2013-04-14 12:25:00,
2013-04-14 08:27:00,57.9,24.2,30.00,West,270,3.4,3.4,27,0.00,,---,0.00,VWS V14.00,2013-04-14 12:27:00,
2013-04-14 08:28:00,57.9,24.2,30.00,West,270,1.6,3.4,27,0.00,,---,0.00,VWS V14.00,2013-04-14 12:28:00,
2013-04-14 08:30:00,58.6,23.9,30.00,SSW,202,0.0,1.6,26,0.00,,---,0.00,VWS V14.00,2013-04-14 12:30:00,
2013-04-14 08:33:00,58.3,23.6,30.00,WSW,248,2.0,2.0,26,0.00,,---,0.00,VWS V14.00,2013-04-14 12:33:00,
2013-04-14 08:35:00,58.1,22.5,30.00,West,270,4.3,4.3,25,0.00,,---,0.00,VWS V14.00,2013-04-14 12:35:00,
2013-04-14 08:38:00,58.6,22.9,30.00,WSW,248,0.0,1.6,25,0.00,,---,0.00,VWS V14.00,2013-04-14 12:38:00,
2013-04-14 08:40:00,59.4,23.6,30.00,WNW,292,2.5,2.5,25,0.00,,---,0.00,VWS V14.00,2013-04-14 12:40:00,
2013-04-14 08:42:00,59.5,23.7,30.00,NW,315,3.1,3.1,25,0.00,,---,0.00,VWS V14.00,2013-04-14 12:42:00,
2013-04-14 08:45:00,59.5,23.7,30.00,NW,315,0.0,2.7,25,0.00,,---,0.00,VWS V14.00,2013-04-14 12:45:00,
2013-04-14 08:46:00,59.9,24.0,30.00,West,270,0.0,0.0,25,0.00,,---,0.00,VWS V14.00,2013-04-14 12:46:00,
2013-04-14 08:49:00,60.3,23.4,30.03,NNW,338,2.5,3.1,24,0.00,,---,0.00,VWS V14.00,2013-04-14 12:49:00,
2013-04-14 08:51:00,60.3,23.4,30.03,NW,315,2.0,2.5,24,0.00,,---,0.00,VWS V14.00,2013-04-14 12:51:00,
2013-04-14 08:53:00,60.4,23.5,30.03,NW,315,1.6,3.1,24,0.00,,---,0.00,VWS V14.00,2013-04-14 12:53:00,
2013-04-14 08:55:00,60.4,23.5,30.03,WNW,292,1.6,2.9,24,0.00,,---,0.00,VWS V14.00,2013-04-14 12:55:00,
2013-04-14 08:56:00,60.4,23.5,30.03,NW,315,2.5,3.4,24,0.00,,---,0.00,VWS V14.00,2013-04-14 12:56:00,
2013-04-14 09:01:00,60.6,23.6,30.03,WNW,292,2.7,4.0,24,0.00,,---,0.00,VWS V14.00,2013-04-14 13:01:00,
2013-04-14 09:02:00,60.6,23.6,30.03,WNW,292,1.6,3.1,24,0.00,,---,0.00,VWS V14.00,2013-04-14 13:02:00,
2013-04-14 09:07:00,60.4,21.4,30.03,WNW,292,3.8,4.3,22,0.00,,---,0.00,VWS V14.00,2013-04-14 13:07:00,
2013-04-14 09:08:00,60.4,21.4,30.03,West,270,2.7,3.8,22,0.00,,---,0.00,VWS V14.00,2013-04-14 13:08:00,
2013-04-14 09:12:00,60.6,21.6,30.03,WNW,292,2.7,4.7,22,0.00,,---,0.00,VWS V14.00,2013-04-14 13:12:00,
2013-04-14 09:13:00,60.8,20.6,30.03,WNW,292,2.0,5.8,21,0.00,,---,0.00,VWS V14.00,2013-04-14 13:13:00,
2013-04-14 09:16:00,60.6,21.6,30.03,WNW,292,1.6,2.5,22,0.00,,---,0.00,VWS V14.00,2013-04-14 13:16:00,
2013-04-14 09:17:00,61.0,20.8,30.03,WNW,292,1.6,5.8,21,0.00,,---,0.00,VWS V14.00,2013-04-14 13:17:00,
2013-04-14 09:19:00,61.3,21.1,30.03,West,270,6.9,8.5,21,0.00,,---,0.00,VWS V14.00,2013-04-14 13:19:00,
2013-04-14 09:22:00,61.3,21.1,30.03,West,270,0.0,6.3,21,0.00,,---,0.00,VWS V14.00,2013-04-14 13:22:00,
2013-04-14 09:24:00,61.5,18.9,30.03,WNW,292,4.0,4.0,19,0.00,,---,0.00,VWS V14.00,2013-04-14 13:24:00,
2013-04-14 09:25:00,61.7,19.0,30.03,WNW,292,4.3,4.3,19,0.00,,---,0.00,VWS V14.00,2013-04-14 13:25:00,
2013-04-14 09:28:00,61.0,18.5,30.03,West,270,5.6,5.6,19,0.00,,---,0.00,VWS V14.00,2013-04-14 13:28:00,
2013-04-14 09:29:00,61.0,18.5,30.03,West,270,7.4,7.4,19,0.00,,---,0.00,VWS V14.00,2013-04-14 13:29:00,
2013-04-14 09:33:00,61.0,18.5,30.03,NW,315,8.5,8.5,19,0.00,,---,0.00,VWS V14.00,2013-04-14 13:33:00,
2013-04-14 09:35:00,61.9,19.2,30.03,NW,315,2.9,3.6,19,0.00,,---,0.00,VWS V14.00,2013-04-14 13:35:00,
2013-04-14 09:38:00,61.9,19.2,30.03,NNW,338,4.0,5.4,19,0.00,,---,0.00,VWS V14.00,2013-04-14 13:38:00,
2013-04-14 09:42:00,61.9,19.2,30.03,West,270,3.4,6.0,19,0.00,,---,0.00,VWS V14.00,2013-04-14 13:42:00,
2013-04-14 09:43:00,61.7,19.0,30.03,WNW,292,5.4,5.6,19,0.00,,---,0.00,VWS V14.00,2013-04-14 13:43:00,
2013-04-14 09:44:00,61.5,18.9,30.03,West,270,8.1,8.1,19,0.00,,---,0.00,VWS V14.00,2013-04-14 13:44:00,
2013-04-14 09:48:00,62.6,18.5,30.03,WNW,292,2.5,4.3,18,0.00,,---,0.00,VWS V14.00,2013-04-14 13:48:00,
2013-04-14 09:53:00,62.1,19.3,30.03,WSW,248,5.8,7.6,19,0.00,,---,0.00,VWS V14.00,2013-04-14 13:53:00,
2013-04-14 09:54:00,62.1,19.3,30.03,WNW,292,4.9,5.8,19,0.00,,---,0.00,VWS V14.00,2013-04-14 13:54:00,
2013-04-14 09:57:00,62.1,19.3,30.03,NNW,338,2.9,6.9,19,0.00,,---,0.00,VWS V14.00,2013-04-14 13:57:00,
2013-04-14 09:59:00,62.6,18.5,30.03,NNW,338,2.0,6.3,18,0.00,,---,0.00,VWS V14.00,2013-04-14 13:59:00,
2013-04-14 10:00:00,62.6,18.5,30.03,WNW,292,4.3,7.6,18,0.00,,---,0.00,VWS V14.00,2013-04-14 14:00:00,
2013-04-14 10:01:00,62.6,18.5,30.03,WSW,248,6.7,13.0,18,0.00,,---,0.00,VWS V14.00,2013-04-14 14:01:00,
2013-04-14 10:03:00,61.3,18.8,30.03,WNW,292,5.4,8.7,19,0.00,,---,0.00,VWS V14.00,2013-04-14 14:03:00,
2013-04-14 10:05:00,61.9,19.2,30.03,WNW,292,5.6,6.7,19,0.00,,---,0.00,VWS V14.00,2013-04-14 14:05:00,
2013-04-14 10:08:00,62.6,18.5,30.03,WNW,292,4.0,4.9,18,0.00,,---,0.00,VWS V14.00,2013-04-14 14:08:00,
2013-04-14 10:11:00,62.4,19.6,30.03,West,270,6.9,8.5,19,0.00,,---,0.00,VWS V14.00,2013-04-14 14:11:00,
2013-04-14 10:12:00,62.2,19.5,30.03,WNW,292,3.4,6.9,19,0.00,,---,0.00,VWS V14.00,2013-04-14 14:12:00,
2013-04-14 10:14:00,63.0,18.8,30.03,WNW,292,3.1,10.5,18,0.00,,---,0.00,VWS V14.00,2013-04-14 14:14:00,
2013-04-14 10:16:00,63.0,18.8,30.03,WNW,292,6.5,7.8,18,0.00,,---,0.00,VWS V14.00,2013-04-14 14:16:00,
2013-04-14 10:19:00,63.0,18.8,30.03,WSW,248,3.4,5.6,18,0.00,,---,0.00,VWS V14.00,2013-04-14 14:19:00,
2013-04-14 10:20:00,63.3,19.1,30.03,WNW,292,3.8,4.7,18,0.00,,---,0.00,VWS V14.00,2013-04-14 14:20:00,
2013-04-14 10:21:00,63.5,19.3,30.03,WNW,292,5.6,6.0,18,0.00,,---,0.00,VWS V14.00,2013-04-14 14:21:00,
2013-04-14 10:22:00,63.7,19.4,30.03,NNW,338,4.5,5.8,18,0.00,,---,0.00,VWS V14.00,2013-04-14 14:22:00,
2013-04-14 10:26:00,64.0,19.7,30.03,WNW,292,3.1,6.3,18,0.00,,---,0.00,VWS V14.00,2013-04-14 14:26:00,
2013-04-14 10:27:00,64.0,19.7,30.03,WNW,292,7.2,7.6,18,0.00,,---,0.00,VWS V14.00,2013-04-14 14:27:00,
2013-04-14 10:28:00,64.4,20.0,30.03,WNW,292,2.9,7.2,18,0.00,,---,0.00,VWS V14.00,2013-04-14 14:28:00,
2013-04-14 10:31:00,63.9,19.6,30.03,West,270,7.6,11.0,18,0.00,,---,0.00,VWS V14.00,2013-04-14 14:31:00,
2013-04-14 10:32:00,63.1,19.0,30.03,NW,315,4.9,8.5,18,0.00,,---,0.00,VWS V14.00,2013-04-14 14:32:00,
2013-04-14 10:34:00,63.7,19.4,30.03,NW,315,6.5,7.8,18,0.00,,---,0.00,VWS V14.00,2013-04-14 14:34:00,
2013-04-14 10:35:00,63.7,19.4,30.03,WNW,292,7.8,8.7,18,0.00,,---,0.00,VWS V14.00,2013-04-14 14:35:00,
2013-04-14 10:37:00,64.4,20.0,30.03,West,270,3.8,4.9,18,0.00,,---,0.00,VWS V14.00,2013-04-14 14:37:00,
2013-04-14 10:39:00,63.9,19.6,30.03,WSW,248,8.5,8.7,18,0.00,,---,0.00,VWS V14.00,2013-04-14 14:39:00,
2013-04-14 10:40:00,63.9,19.6,30.03,WNW,292,8.7,8.7,18,0.00,,---,0.00,VWS V14.00,2013-04-14 14:40:00,
2013-04-14 10:43:00,64.2,19.9,30.03,SW,225,3.1,6.7,18,0.00,,---,0.00,VWS V14.00,2013-04-14 14:43:00,
2013-04-14 10:44:00,64.2,19.9,30.03,WNW,292,6.0,6.0,18,0.00,,---,0.00,VWS V14.00,2013-04-14 14:44:00,
2013-04-14 10:45:00,64.9,20.4,30.03,WNW,292,3.8,8.7,18,0.00,,---,0.00,VWS V14.00,2013-04-14 14:45:00,
2013-04-14 10:49:00,64.0,19.7,30.03,West,270,4.3,7.2,18,0.00,,---,0.00,VWS V14.00,2013-04-14 14:49:00,
2013-04-14 10:51:00,65.1,20.6,30.03,WNW,292,2.7,8.5,18,0.00,,---,0.00,VWS V14.00,2013-04-14 14:51:00,
2013-04-14 10:52:00,64.2,19.9,30.03,NW,315,6.5,6.5,18,0.00,,---,0.00,VWS V14.00,2013-04-14 14:52:00,
2013-04-14 10:54:00,63.1,19.0,30.03,West,270,5.4,8.7,18,0.00,,---,0.00,VWS V14.00,2013-04-14 14:54:00,
2013-04-14 10:58:00,64.9,20.4,30.03,WSW,248,5.8,8.5,18,0.00,,---,0.00,VWS V14.00,2013-04-14 14:58:00,
2013-04-14 10:59:00,64.9,20.4,30.03,WSW,248,3.8,7.4,18,0.00,,---,0.00,VWS V14.00,2013-04-14 14:59:00,
2013-04-14 11:00:00,65.1,20.6,30.03,WSW,248,5.6,9.2,18,0.00,,---,0.00,VWS V14.00,2013-04-14 15:00:00,
2013-04-14 11:04:00,62.6,18.5,30.03,WSW,248,6.3,13.0,18,0.00,,---,0.00,VWS V14.00,2013-04-14 15:04:00,
2013-04-14 11:06:00,62.8,15.9,30.03,NNW,338,5.4,12.5,16,0.00,,---,0.00,VWS V14.00,2013-04-14 15:06:00,
2013-04-14 11:07:00,62.1,15.4,30.03,West,270,16.8,16.8,16,0.00,,---,0.00,VWS V14.00,2013-04-14 15:07:00,
2013-04-14 11:08:00,62.6,18.5,30.03,West,270,7.4,16.8,18,0.00,,---,0.00,VWS V14.00,2013-04-14 15:08:00,
2013-04-14 11:09:00,63.0,18.8,30.03,West,270,9.0,10.3,18,0.00,,---,0.00,VWS V14.00,2013-04-14 15:09:00,
2013-04-14 11:13:00,64.0,19.7,30.03,West,270,12.3,13.0,18,0.00,,---,0.00,VWS V14.00,2013-04-14 15:13:00,
2013-04-14 11:14:00,64.6,20.1,30.03,NW,315,5.6,13.0,18,0.00,,---,0.00,VWS V14.00,2013-04-14 15:14:00,
2013-04-14 11:15:00,64.4,20.0,30.03,WNW,292,10.5,10.5,18,0.00,,---,0.00,VWS V14.00,2013-04-14 15:15:00,
2013-04-14 11:19:00,64.0,19.7,30.03,West,270,7.6,10.7,18,0.00,,---,0.00,VWS V14.00,2013-04-14 15:19:00,
2013-04-14 11:20:00,63.9,19.6,30.03,West,270,11.0,12.5,18,0.00,,---,0.00,VWS V14.00,2013-04-14 15:20:00,
2013-04-14 11:21:00,63.0,18.8,30.03,WNW,292,6.3,12.3,18,0.00,,---,0.00,VWS V14.00,2013-04-14 15:21:00,
2013-04-14 11:25:00,63.9,19.6,30.03,West,270,11.9,11.9,18,0.00,,---,0.00,VWS V14.00,2013-04-14 15:25:00,
2013-04-14 11:26:00,63.5,19.3,30.03,West,270,5.8,12.3,18,0.00,,---,0.00,VWS V14.00,2013-04-14 15:26:00,
2013-04-14 11:28:00,64.9,20.4,30.03,West,270,6.0,8.1,18,0.00,,---,0.00,VWS V14.00,2013-04-14 15:28:00,
2013-04-14 11:30:00,66.0,21.3,30.03,West,270,4.7,5.4,18,0.00,,---,0.00,VWS V14.00,2013-04-14 15:30:00,
2013-04-14 11:32:00,64.2,19.9,30.03,NW,315,5.8,12.1,18,0.00,,---,0.00,VWS V14.00,2013-04-14 15:32:00,
2013-04-14 11:34:00,63.5,19.3,30.03,West,270,10.7,12.5,18,0.00,,---,0.00,VWS V14.00,2013-04-14 15:34:00,
2013-04-14 11:36:00,63.1,16.2,30.03,WSW,248,12.5,13.2,16,0.00,,---,0.00,VWS V14.00,2013-04-14 15:36:00,
2013-04-14 11:38:00,64.4,20.0,30.03,West,270,9.2,12.8,18,0.00,,---,0.00,VWS V14.00,2013-04-14 15:38:00,
2013-04-14 11:39:00,64.8,16.1,30.03,WSW,248,13.2,13.2,15,0.00,,---,0.00,VWS V14.00,2013-04-14 15:39:00,
2013-04-14 11:41:00,63.7,16.7,30.03,NW,315,13.2,14.1,16,0.00,,---,0.00,VWS V14.00,2013-04-14 15:41:00,
2013-04-14 11:43:00,63.3,16.4,30.03,WNW,292,11.0,19.5,16,0.00,,---,0.00,VWS V14.00,2013-04-14 15:43:00,
2013-04-14 11:46:00,63.7,16.7,30.03,WNW,292,9.4,14.8,16,0.00,,---,0.00,VWS V14.00,2013-04-14 15:46:00,
2013-04-14 11:47:00,64.2,17.1,30.03,West,270,11.2,11.2,16,0.00,,---,0.00,VWS V14.00,2013-04-14 15:47:00,
2013-04-14 11:48:00,64.6,15.9,30.03,WSW,248,6.0,11.2,15,0.00,,---,0.00,VWS V14.00,2013-04-14 15:48:00,
2013-04-14 11:50:00,64.4,15.8,30.06,West,270,13.0,17.5,15,0.00,,---,0.00,VWS V14.00,2013-04-14 15:50:00,
2013-04-14 11:54:00,63.5,16.5,30.06,WSW,248,11.0,14.1,16,0.00,,---,0.00,VWS V14.00,2013-04-14 15:54:00,
2013-04-14 11:55:00,62.8,15.9,30.06,West,270,8.5,14.1,16,0.00,,---,0.00,VWS V14.00,2013-04-14 15:55:00,
2013-04-14 11:56:00,63.0,16.1,30.06,WNW,292,16.1,16.1,16,0.00,,---,0.00,VWS V14.00,2013-04-14 15:56:00,
2013-04-14 12:00:00,62.2,15.5,30.06,West,270,12.8,15.9,16,0.00,,---,0.00,VWS V14.00,2013-04-14 16:00:00,
2013-04-14 12:02:00,63.1,16.2,30.06,West,270,10.5,10.5,16,0.00,,---,0.00,VWS V14.00,2013-04-14 16:02:00,
2013-04-14 12:03:00,63.3,16.4,30.06,WSW,248,6.5,12.3,16,0.00,,---,0.00,VWS V14.00,2013-04-14 16:03:00,
2013-04-14 12:06:00,64.0,17.0,30.06,WNW,292,5.6,10.5,16,0.00,,---,0.00,VWS V14.00,2013-04-14 16:06:00,
2013-04-14 12:07:00,63.9,16.8,30.06,NW,315,10.1,14.5,16,0.00,,---,0.00,VWS V14.00,2013-04-14 16:07:00,
2013-04-14 12:12:00,63.3,16.4,30.06,WNW,292,11.0,13.2,16,0.00,,---,0.00,VWS V14.00,2013-04-14 16:12:00,
2013-04-14 12:15:00,63.0,16.1,30.06,WNW,292,7.6,16.6,16,0.00,,---,0.00,VWS V14.00,2013-04-14 16:15:00,
2013-04-14 12:17:00,63.0,16.1,30.06,NW,315,8.1,11.0,16,0.00,,---,0.00,VWS V14.00,2013-04-14 16:17:00,
2013-04-14 12:18:00,63.1,16.2,30.06,NW,315,7.8,14.8,16,0.00,,---,0.00,VWS V14.00,2013-04-14 16:18:00,
2013-04-14 12:20:00,63.5,16.5,30.06,West,270,6.5,14.8,16,0.00,,---,0.00,VWS V14.00,2013-04-14 16:20:00,
2013-04-14 12:21:00,63.7,16.7,30.06,NW,315,8.1,8.5,16,0.00,,---,0.00,VWS V14.00,2013-04-14 16:21:00,
2013-04-14 12:24:00,62.1,15.4,30.06,NW,315,15.2,15.2,16,0.00,,---,0.00,VWS V14.00,2013-04-14 16:24:00,
2013-04-14 12:25:00,62.1,15.4,30.06,WNW,292,14.8,15.2,16,0.00,,---,0.00,VWS V14.00,2013-04-14 16:25:00,
2013-04-14 12:29:00,61.2,14.6,30.06,SSW,202,12.3,19.0,16,0.00,,---,0.00,VWS V14.00,2013-04-14 16:29:00,
2013-04-14 12:31:00,61.7,15.1,30.06,WNW,292,15.2,15.4,16,0.00,,---,0.00,VWS V14.00,2013-04-14 16:31:00,
2013-04-14 12:33:00,62.1,15.4,30.06,WSW,248,8.5,13.0,16,0.00,,---,0.00,VWS V14.00,2013-04-14 16:33:00,
2013-04-14 12:37:00,62.8,15.9,30.06,NE,45,5.6,12.5,16,0.00,,---,0.00,VWS V14.00,2013-04-14 16:37:00,
2013-04-14 12:38:00,62.8,15.9,30.06,NNW,338,9.6,12.3,16,0.00,,---,0.00,VWS V14.00,2013-04-14 16:38:00,
2013-04-14 12:39:00,63.0,16.1,30.06,NW,315,7.8,9.6,16,0.00,,---,0.00,VWS V14.00,2013-04-14 16:39:00,
2013-04-14 12:40:00,63.1,16.2,30.06,NNW,338,6.5,8.5,16,0.00,,---,0.00,VWS V14.00,2013-04-14 16:40:00,
2013-04-14 12:44:00,62.1,15.4,30.06,WNW,292,9.8,14.8,16,0.00,,---,0.00,VWS V14.00,2013-04-14 16:44:00,
2013-04-14 12:45:00,62.6,15.8,30.06,WNW,292,4.3,9.8,16,0.00,,---,0.00,VWS V14.00,2013-04-14 16:45:00,
2013-04-14 12:49:00,62.2,15.5,30.03,West,270,8.1,14.5,16,0.00,,---,0.00,VWS V14.00,2013-04-14 16:49:00,
2013-04-14 12:50:00,61.9,15.2,30.03,WNW,292,14.8,15.2,16,0.00,,---,0.00,VWS V14.00,2013-04-14 16:50:00,
2013-04-14 12:52:00,61.7,15.1,30.03,WNW,292,7.2,15.4,16,0.00,,---,0.00,VWS V14.00,2013-04-14 16:52:00,
2013-04-14 12:54:00,62.1,15.4,30.03,NW,315,6.9,8.5,16,0.00,,---,0.00,VWS V14.00,2013-04-14 16:54:00,
2013-04-14 12:55:00,61.9,15.2,30.03,WNW,292,11.0,11.0,16,0.00,,---,0.00,VWS V14.00,2013-04-14 16:55:00,
2013-04-14 12:58:00,61.3,14.8,30.03,West,270,9.0,14.1,16,0.00,,---,0.00,VWS V14.00,2013-04-14 16:58:00,
2013-04-14 12:59:00,61.5,14.9,30.03,WNW,292,5.8,9.4,16,0.00,,---,0.00,VWS V14.00,2013-04-14 16:59:00,
2013-04-14 13:00:00,62.1,15.4,30.03,WNW,292,4.9,6.5,16,0.00,,---,0.00,VWS V14.00,2013-04-14 17:00:00,
2013-04-14 13:04:00,61.9,15.2,30.03,WNW,292,13.0,13.0,16,0.00,,---,0.00,VWS V14.00,2013-04-14 17:04:00,
2013-04-14 13:06:00,61.7,15.1,30.03,WNW,292,8.5,13.2,16,0.00,,---,0.00,VWS V14.00,2013-04-14 17:06:00,
2013-04-14 13:07:00,61.9,15.2,30.03,WSW,248,8.5,12.8,16,0.00,,---,0.00,VWS V14.00,2013-04-14 17:07:00,
2013-04-14 13:09:00,62.2,15.5,30.03,NNW,338,4.5,10.3,16,0.00,,---,0.00,VWS V14.00,2013-04-14 17:09:00,
2013-04-14 13:11:00,62.6,15.8,30.03,NW,315,5.6,8.5,16,0.00,,---,0.00,VWS V14.00,2013-04-14 17:11:00,
2013-04-14 13:12:00,62.4,15.7,30.03,West,270,9.8,10.1,16,0.00,,---,0.00,VWS V14.00,2013-04-14 17:12:00,
2013-04-14 13:15:00,61.9,15.2,30.03,NNW,338,7.8,10.5,16,0.00,,---,0.00,VWS V14.00,2013-04-14 17:15:00,
2013-04-14 13:18:00,61.3,14.8,30.03,North,0,6.5,14.3,16,0.00,,---,0.00,VWS V14.00,2013-04-14 17:18:00,
2013-04-14 13:22:00,60.8,14.4,30.03,NW,315,10.7,12.1,16,0.00,,---,0.00,VWS V14.00,2013-04-14 17:22:00,
2013-04-14 13:25:00,61.0,14.5,30.03,WNW,292,4.9,13.6,16,0.00,,---,0.00,VWS V14.00,2013-04-14 17:25:00,
2013-04-14 13:27:00,61.2,14.6,30.03,West,270,11.0,14.3,16,0.00,,---,0.00,VWS V14.00,2013-04-14 17:27:00,
2013-04-14 13:30:00,61.3,14.8,30.03,NW,315,6.5,12.5,16,0.00,,---,0.00,VWS V14.00,2013-04-14 17:30:00,
2013-04-14 13:33:00,61.5,14.9,30.03,NW,315,8.5,11.2,16,0.00,,---,0.00,VWS V14.00,2013-04-14 17:33:00,
2013-04-14 13:36:00,61.2,14.6,30.06,NNW,338,17.0,17.0,16,0.00,,---,0.00,VWS V14.00,2013-04-14 17:36:00,
2013-04-14 13:37:00,61.0,14.5,30.06,WNW,292,13.2,17.0,16,0.00,,---,0.00,VWS V14.00,2013-04-14 17:37:00,
2013-04-14 13:39:00,61.0,14.5,30.06,WNW,292,12.3,15.2,16,0.00,,---,0.00,VWS V14.00,2013-04-14 17:39:00,
2013-04-14 13:41:00,61.0,14.5,30.06,WSW,248,10.3,11.9,16,0.00,,---,0.00,VWS V14.00,2013-04-14 17:41:00,
2013-04-14 13:42:00,60.6,15.6,30.06,West,270,10.5,12.5,17,0.00,,---,0.00,VWS V14.00,2013-04-14 17:42:00,
2013-04-14 13:45:00,60.8,14.4,30.06,WNW,292,8.5,10.5,16,0.00,,---,0.00,VWS V14.00,2013-04-14 17:45:00,
2013-04-14 13:48:00,60.6,15.6,30.06,WNW,292,14.5,14.5,17,0.00,,---,0.00,VWS V14.00,2013-04-14 17:48:00,
2013-04-14 13:50:00,60.6,15.6,30.06,West,270,7.8,13.0,17,0.00,,---,0.00,VWS V14.00,2013-04-14 17:50:00,
2013-04-14 13:53:00,61.7,15.1,30.06,NW,315,4.0,4.9,16,0.00,,---,0.00,VWS V14.00,2013-04-14 17:53:00,
2013-04-14 13:55:00,61.3,14.8,30.06,WNW,292,10.3,10.3,16,0.00,,---,0.00,VWS V14.00,2013-04-14 17:55:00,
2013-04-14 13:57:00,61.0,14.5,30.06,WNW,292,7.4,13.0,16,0.00,,---,0.00,VWS V14.00,2013-04-14 17:57:00,
2013-04-14 13:58:00,61.3,14.8,30.06,NW,315,7.2,7.4,16,0.00,,---,0.00,VWS V14.00,2013-04-14 17:58:00,
2013-04-14 14:01:00,61.0,14.5,30.06,WNW,292,17.5,17.5,16,0.00,,---,0.00,VWS V14.00,2013-04-14 18:01:00,
2013-04-14 14:02:00,60.8,14.4,30.06,WSW,248,10.5,17.5,16,0.00,,---,0.00,VWS V14.00,2013-04-14 18:02:00,
2013-04-14 14:07:00,62.1,15.4,30.06,NW,315,11.0,13.4,16,0.00,,---,0.00,VWS V14.00,2013-04-14 18:07:00,
2013-04-14 14:09:00,62.8,15.9,30.06,NW,315,3.4,6.0,16,0.00,,---,0.00,VWS V14.00,2013-04-14 18:09:00,
2013-04-14 14:11:00,62.6,15.8,30.06,NW,315,6.3,6.3,16,0.00,,---,0.00,VWS V14.00,2013-04-14 18:11:00,
2013-04-14 14:12:00,62.8,15.9,30.06,WSW,248,5.4,7.8,16,0.00,,---,0.00,VWS V14.00,2013-04-14 18:12:00,
2013-04-14 14:16:00,62.1,15.4,30.06,West,270,8.7,12.5,16,0.00,,---,0.00,VWS V14.00,2013-04-14 18:16:00,
2013-04-14 14:17:00,62.6,15.8,30.06,NW,315,5.4,8.7,16,0.00,,---,0.00,VWS V14.00,2013-04-14 18:17:00,
2013-04-14 14:19:00,61.9,15.2,30.03,WNW,292,13.9,13.9,16,0.00,,---,0.00,VWS V14.00,2013-04-14 18:19:00,
2013-04-14 14:21:00,61.5,14.9,30.03,WSW,248,8.7,13.2,16,0.00,,---,0.00,VWS V14.00,2013-04-14 18:21:00,
2013-04-14 14:24:00,61.7,15.1,30.03,West,270,12.5,12.5,16,0.00,,---,0.00,VWS V14.00,2013-04-14 18:24:00,
2013-04-14 14:28:00,61.9,15.2,30.03,NW,315,8.7,8.7,16,0.00,,---,0.00,VWS V14.00,2013-04-14 18:28:00,
2013-04-14 14:29:00,61.9,15.2,30.03,NNW,338,3.4,8.7,16,0.00,,---,0.00,VWS V14.00,2013-04-14 18:29:00,
2013-04-14 14:34:00,62.6,15.8,30.03,NW,315,9.0,9.0,16,0.00,,---,0.00,VWS V14.00,2013-04-14 18:34:00,
2013-04-14 14:35:00,62.6,15.8,30.03,NW,315,5.8,10.1,16,0.00,,---,0.00,VWS V14.00,2013-04-14 18:35:00,
2013-04-14 14:37:00,62.2,15.5,30.03,WNW,292,7.4,10.7,16,0.00,,---,0.00,VWS V14.00,2013-04-14 18:37:00,
2013-04-14 14:38:00,62.1,15.4,30.03,WNW,292,4.9,8.5,16,0.00,,---,0.00,VWS V14.00,2013-04-14 18:38:00,
2013-04-14 14:40:00,62.8,15.9,30.03,WNW,292,3.1,8.5,16,0.00,,---,0.00,VWS V14.00,2013-04-14 18:40:00,
2013-04-14 14:43:00,62.6,15.8,30.03,WSW,248,5.6,9.8,16,0.00,,---,0.00,VWS V14.00,2013-04-14 18:43:00,
2013-04-14 14:46:00,63.5,16.5,30.03,NNW,338,4.3,6.5,16,0.00,,---,0.00,VWS V14.00,2013-04-14 18:46:00,
2013-04-14 14:48:00,63.1,16.2,30.03,WNW,292,7.6,10.7,16,0.00,,---,0.00,VWS V14.00,2013-04-14 18:48:00,
2013-04-14 14:49:00,62.4,15.7,30.06,West,270,8.1,17.9,16,0.00,,---,0.00,VWS V14.00,2013-04-14 18:49:00,
2013-04-14 14:53:00,62.4,15.7,30.06,WNW,292,7.8,7.8,16,0.00,,---,0.00,VWS V14.00,2013-04-14 18:53:00,
2013-04-14 14:54:00,62.4,15.7,30.06,WNW,292,7.6,9.8,16,0.00,,---,0.00,VWS V14.00,2013-04-14 18:54:00,
2013-04-14 14:55:00,62.6,15.8,30.06,North,0,3.1,8.1,16,0.00,,---,0.00,VWS V14.00,2013-04-14 18:55:00,
2013-04-14 14:56:00,63.0,16.1,30.06,West,270,5.8,6.7,16,0.00,,---,0.00,VWS V14.00,2013-04-14 18:56:00,
2013-04-14 14:58:00,63.0,16.1,30.06,WNW,292,3.4,9.8,16,0.00,,---,0.00,VWS V14.00,2013-04-14 18:58:00,
2013-04-14 15:03:00,63.0,16.1,30.06,WNW,292,6.9,10.5,16,0.00,,---,0.00,VWS V14.00,2013-04-14 19:03:00,
2013-04-14 15:04:00,63.0,16.1,30.03,WNW,292,6.5,10.1,16,0.00,,---,0.00,VWS V14.00,2013-04-14 19:04:00,
2013-04-14 15:05:00,63.0,16.1,30.03,WNW,292,2.7,10.3,16,0.00,,---,0.00,VWS V14.00,2013-04-14 19:05:00,
2013-04-14 15:06:00,63.3,16.4,30.03,WNW,292,5.8,7.6,16,0.00,,---,0.00,VWS V14.00,2013-04-14 19:06:00,
2013-04-14 15:09:00,63.7,16.7,30.03,WNW,292,2.0,6.0,16,0.00,,---,0.00,VWS V14.00,2013-04-14 19:09:00,
2013-04-14 15:10:00,63.1,16.2,30.03,NNW,338,7.6,8.7,16,0.00,,---,0.00,VWS V14.00,2013-04-14 19:10:00,
2013-04-14 15:12:00,63.3,16.4,30.03,WNW,292,5.4,7.6,16,0.00,,---,0.00,VWS V14.00,2013-04-14 19:12:00,
2013-04-14 15:14:00,63.1,16.2,30.03,NNW,338,5.8,8.1,16,0.00,,---,0.00,VWS V14.00,2013-04-14 19:14:00,
2013-04-14 15:15:00,63.3,16.4,30.03,North,0,2.0,5.8,16,0.00,,---,0.00,VWS V14.00,2013-04-14 19:15:00,
2013-04-14 15:19:00,63.0,16.1,30.03,NNW,338,7.8,7.8,16,0.00,,---,0.00,VWS V14.00,2013-04-14 19:19:00,
2013-04-14 15:20:00,63.1,16.2,30.03,NNE,22,5.4,9.6,16,0.00,,---,0.00,VWS V14.00,2013-04-14 19:20:00,
2013-04-14 15:25:00,63.0,16.1,30.03,NNW,338,4.9,8.5,16,0.00,,---,0.00,VWS V14.00,2013-04-14 19:25:00,
2013-04-14 15:30:00,63.1,16.2,30.03,NNW,338,3.1,7.4,16,0.00,,---,0.00,VWS V14.00,2013-04-14 19:30:00,
2013-04-14 15:31:00,63.5,16.5,30.03,NNW,338,11.9,11.9,16,0.00,,---,0.00,VWS V14.00,2013-04-14 19:31:00,
2013-04-14 15:34:00,63.5,16.5,30.06,NNW,338,5.8,10.7,16,0.00,,---,0.00,VWS V14.00,2013-04-14 19:34:00,
2013-04-14 15:35:00,63.7,16.7,30.06,NW,315,6.5,6.5,16,0.00,,---,0.00,VWS V14.00,2013-04-14 19:35:00,
2013-04-14 15:37:00,63.9,16.8,30.06,NW,315,7.4,7.4,16,0.00,,---,0.00,VWS V14.00,2013-04-14 19:37:00,
2013-04-14 15:39:00,64.2,17.1,30.06,NNE,22,5.4,6.7,16,0.00,,---,0.00,VWS V14.00,2013-04-14 19:39:00,
2013-04-14 15:42:00,63.9,16.8,30.06,NW,315,4.3,8.5,16,0.00,,---,0.00,VWS V14.00,2013-04-14 19:42:00,
2013-04-14 15:43:00,64.2,17.1,30.06,NNW,338,7.8,8.1,16,0.00,,---,0.00,VWS V14.00,2013-04-14 19:43:00,
2013-04-14 15:44:00,63.5,16.5,30.06,NNW,338,10.7,10.7,16,0.00,,---,0.00,VWS V14.00,2013-04-14 19:44:00,
2013-04-14 15:47:00,64.0,17.0,30.06,NNE,22,5.4,7.8,16,0.00,,---,0.00,VWS V14.00,2013-04-14 19:47:00,
2013-04-14 15:48:00,64.6,15.9,30.06,NNW,338,0.9,5.4,15,0.00,,---,0.00,VWS V14.00,2013-04-14 19:48:00,
2013-04-14 15:49:00,64.4,15.8,30.06,WNW,292,11.0,11.0,15,0.00,,---,0.00,VWS V14.00,2013-04-14 19:49:00,
2013-04-14 15:53:00,64.2,17.1,30.06,WNW,292,9.8,9.8,16,0.00,,---,0.00,VWS V14.00,2013-04-14 19:53:00,
2013-04-14 15:55:00,63.9,16.8,30.06,WNW,292,7.4,7.4,16,0.00,,---,0.00,VWS V14.00,2013-04-14 19:55:00,
2013-04-14 15:56:00,63.7,16.7,30.06,West,270,4.9,9.6,16,0.00,,---,0.00,VWS V14.00,2013-04-14 19:56:00,
2013-04-14 16:00:00,64.2,17.1,30.06,WNW,292,3.8,3.8,16,0.00,,---,0.00,VWS V14.00,2013-04-14 20:00:00,
2013-04-14 16:01:00,64.2,17.1,30.06,WNW,292,6.3,9.8,16,0.00,,---,0.00,VWS V14.00,2013-04-14 20:01:00,
2013-04-14 16:02:00,64.2,17.1,30.06,NNE,22,5.6,8.5,16,0.00,,---,0.00,VWS V14.00,2013-04-14 20:02:00,
2013-04-14 16:03:00,64.2,17.1,30.06,NNW,338,4.0,5.6,16,0.00,,---,0.00,VWS V14.00,2013-04-14 20:03:00,
2013-04-14 16:06:00,64.0,17.0,30.06,NNW,338,3.1,6.0,16,0.00,,---,0.00,VWS V14.00,2013-04-14 20:06:00,
2013-04-14 16:07:00,64.2,17.1,30.06,NNW,338,2.5,8.1,16,0.00,,---,0.00,VWS V14.00,2013-04-14 20:07:00,
2013-04-14 16:08:00,64.8,16.1,30.06,NW,315,5.8,7.6,15,0.00,,---,0.00,VWS V14.00,2013-04-14 20:08:00,
2013-04-14 16:13:00,63.7,16.7,30.06,NW,315,6.3,7.6,16,0.00,,---,0.00,VWS V14.00,2013-04-14 20:13:00,
2013-04-14 16:14:00,63.5,16.5,30.06,WSW,248,6.5,8.7,16,0.00,,---,0.00,VWS V14.00,2013-04-14 20:14:00,
2013-04-14 16:16:00,64.0,17.0,30.06,WNW,292,6.5,7.4,16,0.00,,---,0.00,VWS V14.00,2013-04-14 20:16:00,
2013-04-14 16:18:00,64.2,17.1,30.06,WNW,292,5.8,7.8,16,0.00,,---,0.00,VWS V14.00,2013-04-14 20:18:00,
2013-04-14 16:19:00,64.0,17.0,30.06,WNW,292,4.3,8.1,16,0.00,,---,0.00,VWS V14.00,2013-04-14 20:19:00,
2013-04-14 16:22:00,63.9,16.8,30.06,NW,315,6.3,11.0,16,0.00,,---,0.00,VWS V14.00,2013-04-14 20:22:00,
2013-04-14 16:24:00,63.5,16.5,30.06,WNW,292,11.0,11.0,16,0.00,,---,0.00,VWS V14.00,2013-04-14 20:24:00,
2013-04-14 16:26:00,63.5,16.5,30.06,West,270,5.4,5.6,16,0.00,,---,0.00,VWS V14.00,2013-04-14 20:26:00,
2013-04-14 16:27:00,63.7,16.7,30.06,WNW,292,2.5,6.5,16,0.00,,---,0.00,VWS V14.00,2013-04-14 20:27:00,
2013-04-14 16:31:00,64.0,17.0,30.06,NNW,338,4.9,7.8,16,0.00,,---,0.00,VWS V14.00,2013-04-14 20:31:00,
2013-04-14 16:32:00,63.9,16.8,30.06,NW,315,5.8,5.8,16,0.00,,---,0.00,VWS V14.00,2013-04-14 20:32:00,
2013-04-14 16:33:00,63.9,16.8,30.06,WNW,292,7.8,7.8,16,0.00,,---,0.00,VWS V14.00,2013-04-14 20:33:00,
2013-04-14 16:34:00,63.5,16.5,30.06,West,270,5.4,10.7,16,0.00,,---,0.00,VWS V14.00,2013-04-14 20:34:00,
2013-04-14 16:37:00,63.7,16.7,30.06,West,270,4.9,6.3,16,0.00,,---,0.00,VWS V14.00,2013-04-14 20:37:00,
2013-04-14 16:38:00,63.7,16.7,30.06,NNW,338,8.1,8.1,16,0.00,,---,0.00,VWS V14.00,2013-04-14 20:38:00,
2013-04-14 16:40:00,63.5,16.5,30.06,NNW,338,10.5,10.5,16,0.00,,---,0.00,VWS V14.00,2013-04-14 20:40:00,
2013-04-14 16:41:00,63.9,16.8,30.06,NNW,338,6.0,10.5,16,0.00,,---,0.00,VWS V14.00,2013-04-14 20:41:00,
2013-04-14 16:45:00,64.2,17.1,30.06,NNW,338,8.7,8.7,16,0.00,,---,0.00,VWS V14.00,2013-04-14 20:45:00,
2013-04-14 16:46:00,63.9,16.8,30.06,NW,315,5.6,8.7,16,0.00,,---,0.00,VWS V14.00,2013-04-14 20:46:00,
2013-04-14 16:47:00,63.9,16.8,30.06,NNW,338,2.9,7.4,16,0.00,,---,0.00,VWS V14.00,2013-04-14 20:47:00,
2013-04-14 16:49:00,63.9,16.8,30.09,NW,315,1.6,6.3,16,0.00,,---,0.00,VWS V14.00,2013-04-14 20:49:00,
2013-04-14 16:52:00,64.4,15.8,30.09,West,270,6.5,6.5,15,0.00,,---,0.00,VWS V14.00,2013-04-14 20:52:00,
2013-04-14 16:54:00,64.6,15.9,30.09,NW,315,4.9,4.9,15,0.00,,---,0.00,VWS V14.00,2013-04-14 20:54:00,
2013-04-14 16:57:00,64.2,17.1,30.09,North,0,4.9,8.1,16,0.00,,---,0.00,VWS V14.00,2013-04-14 20:57:00,
2013-04-14 17:00:00,63.9,16.8,30.09,West,270,8.7,8.7,16,0.00,,---,0.00,VWS V14.00,2013-04-14 21:00:00,
2013-04-14 17:02:00,63.9,16.8,30.09,NW,315,6.5,6.5,16,0.00,,---,0.00,VWS V14.00,2013-04-14 21:02:00,
2013-04-14 17:04:00,63.7,16.7,30.09,North,0,4.0,7.4,16,0.00,,---,0.00,VWS V14.00,2013-04-14 21:04:00,
2013-04-14 17:06:00,64.0,17.0,30.09,NNW,338,1.6,4.7,16,0.00,,---,0.00,VWS V14.00,2013-04-14 21:06:00,
2013-04-14 17:08:00,64.4,15.8,30.09,North,0,5.4,5.4,15,0.00,,---,0.00,VWS V14.00,2013-04-14 21:08:00,
2013-04-14 17:09:00,64.8,16.1,30.09,West,270,2.9,5.4,15,0.00,,---,0.00,VWS V14.00,2013-04-14 21:09:00,
2013-04-14 17:14:00,64.0,17.0,30.09,NNW,338,3.8,6.9,16,0.00,,---,0.00,VWS V14.00,2013-04-14 21:14:00,
2013-04-14 17:15:00,64.0,17.0,30.09,NW,315,4.9,6.5,16,0.00,,---,0.00,VWS V14.00,2013-04-14 21:15:00,
2013-04-14 17:19:00,63.7,16.7,30.09,North,0,2.5,7.8,16,0.00,,---,0.00,VWS V14.00,2013-04-14 21:19:00,
2013-04-14 17:21:00,63.7,16.7,30.09,NNW,338,4.3,7.2,16,0.00,,---,0.00,VWS V14.00,2013-04-14 21:21:00,
2013-04-14 17:23:00,63.7,16.7,30.09,NNW,338,4.7,6.0,16,0.00,,---,0.00,VWS V14.00,2013-04-14 21:23:00,
2013-04-14 17:24:00,63.7,16.7,30.09,WNW,292,6.3,6.3,16,0.00,,---,0.00,VWS V14.00,2013-04-14 21:24:00,
2013-04-14 17:28:00,63.5,16.5,30.09,WNW,292,4.9,8.5,16,0.00,,---,0.00,VWS V14.00,2013-04-14 21:28:00,
2013-04-14 17:29:00,63.9,16.8,30.09,West,270,4.9,8.5,16,0.00,,---,0.00,VWS V14.00,2013-04-14 21:29:00,
2013-04-14 17:30:00,63.9,16.8,30.09,West,270,8.1,8.1,16,0.00,,---,0.00,VWS V14.00,2013-04-14 21:30:00,
2013-04-14 17:33:00,63.5,16.5,30.09,WNW,292,3.1,6.7,16,0.00,,---,0.00,VWS V14.00,2013-04-14 21:33:00,
2013-04-14 17:34:00,63.5,16.5,30.09,NW,315,2.7,6.5,16,0.00,,---,0.00,VWS V14.00,2013-04-14 21:34:00,
2013-04-14 17:36:00,63.9,16.8,30.09,NNW,338,5.4,6.3,16,0.00,,---,0.00,VWS V14.00,2013-04-14 21:36:00,
2013-04-14 17:39:00,64.2,17.1,30.09,NW,315,2.7,2.7,16,0.00,,---,0.00,VWS V14.00,2013-04-14 21:39:00,
2013-04-14 17:42:00,63.9,16.8,30.09,NNW,338,3.4,5.4,16,0.00,,---,0.00,VWS V14.00,2013-04-14 21:42:00,
2013-04-14 17:43:00,63.9,16.8,30.09,NW,315,3.6,4.9,16,0.00,,---,0.00,VWS V14.00,2013-04-14 21:43:00,
2013-04-14 17:48:00,64.0,17.0,30.09,West,270,4.9,4.9,16,0.00,,---,0.00,VWS V14.00,2013-04-14 21:48:00,
2013-04-14 17:49:00,64.2,17.1,30.09,WSW,248,4.3,4.9,16,0.00,,---,0.00,VWS V14.00,2013-04-14 21:49:00,
2013-04-14 17:53:00,64.2,17.1,30.09,NW,315,4.3,4.3,16,0.00,,---,0.00,VWS V14.00,2013-04-14 21:53:00,
2013-04-14 17:55:00,64.0,17.0,30.09,WNW,292,1.3,4.9,16,0.00,,---,0.00,VWS V14.00,2013-04-14 21:55:00,
2013-04-14 17:57:00,64.0,17.0,30.09,NW,315,4.9,4.9,16,0.00,,---,0.00,VWS V14.00,2013-04-14 21:57:00,
2013-04-14 17:58:00,64.0,17.0,30.09,NNE,22,1.6,4.9,16,0.00,,---,0.00,VWS V14.00,2013-04-14 21:58:00,
2013-04-14 17:59:00,64.0,17.0,30.09,NNW,338,1.1,2.7,16,0.00,,---,0.00,VWS V14.00,2013-04-14 21:59:00,
2013-04-14 18:02:00,64.0,17.0,30.09,WNW,292,3.4,3.6,16,0.00,,---,0.00,VWS V14.00,2013-04-14 22:02:00,
2013-04-14 18:03:00,64.0,17.0,30.09,NW,315,2.0,3.4,16,0.00,,---,0.00,VWS V14.00,2013-04-14 22:03:00,
2013-04-14 18:07:00,63.9,16.8,30.09,NW,315,3.8,5.8,16,0.00,,---,0.00,VWS V14.00,2013-04-14 22:07:00,
2013-04-14 18:08:00,63.7,16.7,30.09,North,0,1.3,5.6,16,0.00,,---,0.00,VWS V14.00,2013-04-14 22:08:00,
2013-04-14 18:09:00,63.9,16.8,30.09,West,270,0.9,2.0,16,0.00,,---,0.00,VWS V14.00,2013-04-14 22:09:00,
2013-04-14 18:12:00,63.5,16.5,30.09,NW,315,4.9,7.2,16,0.00,,---,0.00,VWS V14.00,2013-04-14 22:12:00,
2013-04-14 18:14:00,63.5,16.5,30.09,West,270,3.1,4.0,16,0.00,,---,0.00,VWS V14.00,2013-04-14 22:14:00,
2013-04-14 18:16:00,63.5,16.5,30.09,WNW,292,4.7,6.0,16,0.00,,---,0.00,VWS V14.00,2013-04-14 22:16:00,
2013-04-14 18:18:00,63.1,16.2,30.09,West,270,4.7,4.7,16,0.00,,---,0.00,VWS V14.00,2013-04-14 22:18:00,
2013-04-14 18:19:00,63.0,16.1,30.09,WNW,292,5.6,5.6,16,0.00,,---,0.00,VWS V14.00,2013-04-14 22:19:00,
2013-04-14 18:23:00,63.0,16.1,30.09,WNW,292,5.6,8.1,16,0.00,,---,0.00,VWS V14.00,2013-04-14 22:23:00,
2013-04-14 18:24:00,62.8,15.9,30.09,WNW,292,7.6,7.6,16,0.00,,---,0.00,VWS V14.00,2013-04-14 22:24:00,
2013-04-14 18:27:00,62.6,15.8,30.09,NW,315,3.6,6.5,16,0.00,,---,0.00,VWS V14.00,2013-04-14 22:27:00,
2013-04-14 18:28:00,62.6,15.8,30.09,West,270,2.7,4.7,16,0.00,,---,0.00,VWS V14.00,2013-04-14 22:28:00,
2013-04-14 18:32:00,62.2,15.5,30.09,NW,315,6.5,7.4,16,0.00,,---,0.00,VWS V14.00,2013-04-14 22:32:00,
2013-04-14 18:33:00,62.1,15.4,30.09,WNW,292,4.3,6.5,16,0.00,,---,0.00,VWS V14.00,2013-04-14 22:33:00,
2013-04-14 18:34:00,62.2,15.5,30.09,NW,315,2.0,4.3,16,0.00,,---,0.00,VWS V14.00,2013-04-14 22:34:00,
2013-04-14 18:35:00,62.2,15.5,30.09,NW,315,3.6,6.9,16,0.00,,---,0.00,VWS V14.00,2013-04-14 22:35:00,
2013-04-14 18:37:00,62.1,15.4,30.09,WNW,292,5.4,6.5,16,0.00,,---,0.00,VWS V14.00,2013-04-14 22:37:00,
2013-04-14 18:38:00,62.1,15.4,30.09,WNW,292,3.1,5.4,16,0.00,,---,0.00,VWS V14.00,2013-04-14 22:38:00,
2013-04-14 18:42:00,62.1,15.4,30.09,West,270,2.7,3.1,16,0.00,,---,0.00,VWS V14.00,2013-04-14 22:42:00,
2013-04-14 18:43:00,61.7,15.1,30.09,NW,315,4.3,6.3,16,0.00,,---,0.00,VWS V14.00,2013-04-14 22:43:00,
2013-04-14 18:45:00,61.7,15.1,30.09,NW,315,3.6,6.3,16,0.00,,---,0.00,VWS V14.00,2013-04-14 22:45:00,
2013-04-14 18:49:00,61.3,14.8,30.09,NNW,338,6.3,6.3,16,0.00,,---,0.00,VWS V14.00,2013-04-14 22:49:00,
2013-04-14 18:52:00,61.0,14.5,30.09,NW,315,1.1,4.0,16,0.00,,---,0.00,VWS V14.00,2013-04-14 22:52:00,
2013-04-14 18:54:00,61.0,14.5,30.09,WSW,248,0.0,0.0,16,0.00,,---,0.00,VWS V14.00,2013-04-14 22:54:00,
2013-04-14 18:57:00,60.8,14.4,30.09,SSE,158,3.8,3.8,16,0.00,,---,0.00,VWS V14.00,2013-04-14 22:57:00,
2013-04-14 19:00:00,59.2,14.4,30.09,ESE,112,5.6,5.6,17,0.00,,---,0.00,VWS V14.00,2013-04-14 23:00:00,
2013-04-14 19:01:00,58.6,14.0,30.09,SE,135,3.4,6.5,17,0.00,,---,0.00,VWS V14.00,2013-04-14 23:01:00,
2013-04-14 19:05:00,56.7,12.4,30.12,SE,135,6.9,6.9,17,0.00,,---,0.00,VWS V14.00,2013-04-14 23:05:00,
2013-04-14 19:06:00,56.3,12.1,30.12,SSE,158,6.5,8.5,17,0.00,,---,0.00,VWS V14.00,2013-04-14 23:06:00,
2013-04-14 19:07:00,55.9,11.8,30.12,SE,135,6.5,6.5,17,0.00,,---,0.00,VWS V14.00,2013-04-14 23:07:00,
2013-04-14 19:08:00,55.6,11.5,30.12,ESE,112,4.9,7.8,17,0.00,,---,0.00,VWS V14.00,2013-04-14 23:08:00,
2013-04-14 19:11:00,54.9,12.2,30.12,ESE,112,5.4,5.4,18,0.00,,---,0.00,VWS V14.00,2013-04-14 23:11:00,
2013-04-14 19:12:00,54.7,12.0,30.12,ESE,112,6.5,6.5,18,0.00,,---,0.00,VWS V14.00,2013-04-14 23:12:00,
2013-04-14 19:14:00,54.5,11.9,30.12,SE,135,5.6,5.6,18,0.00,,---,0.00,VWS V14.00,2013-04-14 23:14:00,
2013-04-14 19:18:00,53.6,11.1,30.12,SSE,158,5.6,7.8,18,0.00,,---,0.00,VWS V14.00,2013-04-14 23:18:00,
2013-04-14 19:19:00,53.6,11.1,30.15,ESE,112,4.0,7.4,18,0.00,,---,0.00,VWS V14.00,2013-04-14 23:19:00,
2013-04-14 19:20:00,53.4,11.0,30.15,SSE,158,4.0,4.9,18,0.00,,---,0.00,VWS V14.00,2013-04-14 23:20:00,
2013-04-14 19:24:00,53.2,10.9,30.15,ESE,112,3.6,4.0,18,0.00,,---,0.00,VWS V14.00,2013-04-14 23:24:00,
2013-04-14 19:26:00,53.1,10.7,30.15,SSE,158,3.4,4.0,18,0.00,,---,0.00,VWS V14.00,2013-04-14 23:26:00,
2013-04-14 19:29:00,52.9,10.6,30.15,ESE,112,4.3,6.5,18,0.00,,---,0.00,VWS V14.00,2013-04-14 23:29:00,
2013-04-14 19:30:00,52.9,10.6,30.15,SE,135,5.4,5.4,18,0.00,,---,0.00,VWS V14.00,2013-04-14 23:30:00,
2013-04-14 19:35:00,52.7,10.4,30.15,SE,135,3.1,4.0,18,0.00,,---,0.00,VWS V14.00,2013-04-14 23:35:00,
2013-04-14 19:39:00,52.5,10.2,30.15,ESE,112,0.0,0.0,18,0.00,,---,0.00,VWS V14.00,2013-04-14 23:39:00,
2013-04-14 19:41:00,52.5,10.2,30.15,ESE,112,2.5,2.7,18,0.00,,---,0.00,VWS V14.00,2013-04-14 23:41:00,
2013-04-14 19:42:00,52.5,10.2,30.15,ESE,112,2.5,2.9,18,0.00,,---,0.00,VWS V14.00,2013-04-14 23:42:00,
2013-04-14 19:43:00,52.5,10.2,30.15,SE,135,2.0,3.4,18,0.00,,---,0.00,VWS V14.00,2013-04-14 23:43:00,
2013-04-14 19:45:00,52.7,10.4,30.15,SE,135,4.9,4.9,18,0.00,,---,0.00,VWS V14.00,2013-04-14 23:45:00,
2013-04-14 19:48:00,52.7,10.4,30.15,ESE,112,2.0,2.7,18,0.00,,---,0.00,VWS V14.00,2013-04-14 23:48:00,
2013-04-14 19:50:00,52.7,10.4,30.15,ESE,112,3.8,3.8,18,0.00,,---,0.00,VWS V14.00,2013-04-14 23:50:00,
2013-04-14 19:51:00,52.5,10.2,30.15,ESE,112,3.4,4.0,18,0.00,,---,0.00,VWS V14.00,2013-04-14 23:51:00,
2013-04-14 19:53:00,52.5,10.2,30.15,ESE,112,4.3,4.3,18,0.00,,---,0.00,VWS V14.00,2013-04-14 23:53:00,
2013-04-14 19:55:00,52.5,10.2,30.15,ESE,112,2.9,4.9,18,0.00,,---,0.00,VWS V14.00,2013-04-14 23:55:00,
2013-04-14 19:56:00,52.5,10.2,30.15,ESE,112,3.8,3.8,18,0.00,,---,0.00,VWS V14.00,2013-04-14 23:56:00,
2013-04-14 19:58:00,52.5,10.2,30.15,SE,135,2.9,3.8,18,0.00,,---,0.00,VWS V14.00,2013-04-14 23:58:00,
2013-04-14 20:00:00,52.5,10.2,30.15,ESE,112,3.6,3.6,18,0.00,,---,0.00,VWS V14.00,2013-04-15 00:00:00,
2013-04-14 20:01:00,52.5,10.2,30.15,SE,135,3.6,3.6,18,0.00,,---,0.00,VWS V14.00,2013-04-15 00:01:00,
2013-04-14 20:04:00,52.5,10.2,30.15,SE,135,2.5,2.5,18,0.00,,---,0.00,VWS V14.00,2013-04-15 00:04:00,
2013-04-14 20:07:00,52.3,10.1,30.15,SSE,158,3.8,3.8,18,0.00,,---,0.00,VWS V14.00,2013-04-15 00:07:00,
2013-04-14 20:09:00,52.2,10.0,30.15,SE,135,3.4,5.8,18,0.00,,---,0.00,VWS V14.00,2013-04-15 00:09:00,
2013-04-14 20:11:00,52.0,9.8,30.15,SE,135,3.1,3.1,18,0.00,,---,0.00,VWS V14.00,2013-04-15 00:11:00,
2013-04-14 20:14:00,51.8,9.7,30.15,SSE,158,4.9,458.3,18,0.00,,---,0.00,VWS V14.00,2013-04-15 00:14:00,
2013-04-14 20:15:00,51.6,10.7,30.15,SSE,158,3.6,4.9,19,0.00,,---,0.00,VWS V14.00,2013-04-15 00:15:00,
2013-04-14 20:16:00,51.6,10.7,30.15,SSE,158,2.5,3.8,19,0.00,,---,0.00,VWS V14.00,2013-04-15 00:16:00,
2013-04-14 20:17:00,51.6,10.7,30.15,SSE,158,3.6,4.0,19,0.00,,---,0.00,VWS V14.00,2013-04-15 00:17:00,
2013-04-14 20:22:00,51.3,10.4,30.15,SSE,158,3.1,4.0,19,0.00,,---,0.00,VWS V14.00,2013-04-15 00:22:00,
2013-04-14 20:23:00,51.1,10.3,30.15,SSE,158,2.0,3.4,19,0.00,,---,0.00,VWS V14.00,2013-04-15 00:23:00,
2013-04-14 20:24:00,51.1,10.3,30.15,SSE,158,3.6,3.6,19,0.00,,---,0.00,VWS V14.00,2013-04-15 00:24:00,
2013-04-14 20:25:00,51.1,10.3,30.15,SSE,158,3.4,4.0,19,0.00,,---,0.00,VWS V14.00,2013-04-15 00:25:00,
2013-04-14 20:28:00,50.9,10.1,30.15,SSE,158,2.0,2.9,19,0.00,,---,0.00,VWS V14.00,2013-04-15 00:28:00,
2013-04-14 20:30:00,50.9,10.1,30.15,SSE,158,2.0,2.9,19,0.00,,---,0.00,VWS V14.00,2013-04-15 00:30:00,
2013-04-14 20:33:00,50.7,10.0,30.15,SSE,158,3.8,3.8,19,0.00,,---,0.00,VWS V14.00,2013-04-15 00:33:00,
2013-04-14 20:35:00,50.7,10.0,30.15,SE,135,3.8,4.0,19,0.00,,---,0.00,VWS V14.00,2013-04-15 00:35:00,
2013-04-14 20:40:00,50.7,10.0,30.15,ESE,112,5.4,5.4,19,0.00,,---,0.00,VWS V14.00,2013-04-15 00:40:00,
2013-04-14 20:41:00,50.7,10.0,30.15,ESE,112,4.0,5.4,19,0.00,,---,0.00,VWS V14.00,2013-04-15 00:41:00,
2013-04-14 20:42:00,50.7,10.0,30.15,SE,135,4.3,5.8,19,0.00,,---,0.00,VWS V14.00,2013-04-15 00:42:00,
2013-04-14 20:43:00,50.7,10.0,30.15,ESE,112,3.6,4.9,19,0.00,,---,0.00,VWS V14.00,2013-04-15 00:43:00,
2013-04-14 20:47:00,50.9,10.1,30.15,SE,135,3.6,4.9,19,0.00,,---,0.00,VWS V14.00,2013-04-15 00:47:00,
2013-04-14 20:48:00,50.9,10.1,30.15,SE,135,3.1,4.3,19,0.00,,---,0.00,VWS V14.00,2013-04-15 00:48:00,
2013-04-14 20:52:00,50.9,10.1,30.15,SE,135,3.1,3.4,19,0.00,,---,0.00,VWS V14.00,2013-04-15 00:52:00,
2013-04-14 20:53:00,50.9,10.1,30.15,SE,135,3.6,3.6,19,0.00,,---,0.00,VWS V14.00,2013-04-15 00:53:00,
2013-04-14 20:55:00,51.1,10.3,30.15,SE,135,5.6,5.6,19,0.00,,---,0.00,VWS V14.00,2013-04-15 00:55:00,
2013-04-14 20:56:00,51.1,10.3,30.15,SE,135,6.3,6.3,19,0.00,,---,0.00,VWS V14.00,2013-04-15 00:56:00,
2013-04-14 20:58:00,51.1,10.3,30.15,SE,135,5.4,5.6,19,0.00,,---,0.00,VWS V14.00,2013-04-15 00:58:00,
2013-04-14 20:59:00,51.1,10.3,30.15,ESE,112,6.0,8.1,19,0.00,,---,0.00,VWS V14.00,2013-04-15 00:59:00,
2013-04-14 21:00:00,51.1,10.3,30.15,ESE,112,3.6,6.5,19,0.00,,---,0.00,VWS V14.00,2013-04-15 01:00:00,
2013-04-14 21:01:00,51.1,10.3,30.15,SSE,158,2.5,4.5,19,0.00,,---,0.00,VWS V14.00,2013-04-15 01:01:00,
2013-04-14 21:03:00,51.1,10.3,30.15,ESE,112,4.0,5.4,19,0.00,,---,0.00,VWS V14.00,2013-04-15 01:03:00,
2013-04-14 21:05:00,51.1,10.3,30.18,SE,135,5.4,5.4,19,0.00,,---,0.00,VWS V14.00,2013-04-15 01:05:00,
2013-04-14 21:10:00,50.9,10.1,30.18,South,180,3.4,4.3,19,0.00,,---,0.00,VWS V14.00,2013-04-15 01:10:00,
2013-04-14 21:13:00,50.7,10.0,30.18,SSE,158,2.7,2.7,19,0.00,,---,0.00,VWS V14.00,2013-04-15 01:13:00,
2013-04-14 21:15:00,50.7,10.0,30.18,SSE,158,2.9,3.4,19,0.00,,---,0.00,VWS V14.00,2013-04-15 01:15:00,
2013-04-14 21:18:00,50.5,9.8,30.18,SE,135,2.5,4.3,19,0.00,,---,0.00,VWS V14.00,2013-04-15 01:18:00,
2013-04-14 21:20:00,50.5,9.8,30.18,SSE,158,2.5,4.0,19,0.00,,---,0.00,VWS V14.00,2013-04-15 01:20:00,
2013-04-14 21:21:00,50.5,9.8,30.18,SE,135,3.6,3.6,19,0.00,,---,0.00,VWS V14.00,2013-04-15 01:21:00,
2013-04-14 21:23:00,50.5,9.8,30.18,SE,135,3.4,3.8,19,0.00,,---,0.00,VWS V14.00,2013-04-15 01:23:00,
2013-04-14 21:26:00,50.5,9.8,30.18,SE,135,3.6,4.9,19,0.00,,---,0.00,VWS V14.00,2013-04-15 01:26:00,
2013-04-14 21:32:00,50.5,9.8,30.18,SE,135,4.0,6.0,19,0.00,,---,0.00,VWS V14.00,2013-04-15 01:32:00,
2013-04-14 21:34:00,50.4,9.7,30.18,SSE,158,4.0,4.0,19,0.00,,---,0.00,VWS V14.00,2013-04-15 01:34:00,
2013-04-14 21:39:00,50.4,9.7,30.18,SE,135,3.4,4.3,19,0.00,,---,0.00,VWS V14.00,2013-04-15 01:39:00,
2013-04-14 21:40:00,50.4,9.7,30.18,SE,135,3.6,6.0,19,0.00,,---,0.00,VWS V14.00,2013-04-15 01:40:00,
2013-04-14 21:45:00,50.4,9.7,30.18,ESE,112,3.1,4.5,19,0.00,,---,0.00,VWS V14.00,2013-04-15 01:45:00,
2013-04-14 21:46:00,50.4,9.7,30.18,SSE,158,3.4,5.4,19,0.00,,---,0.00,VWS V14.00,2013-04-15 01:46:00,
2013-04-14 21:47:00,50.4,9.7,30.18,ESE,112,4.3,4.3,19,0.00,,---,0.00,VWS V14.00,2013-04-15 01:47:00,
2013-04-14 21:51:00,50.4,9.7,30.18,SE,135,4.9,6.3,19,0.00,,---,0.00,VWS V14.00,2013-04-15 01:51:00,
2013-04-14 21:52:00,50.4,9.7,30.18,SE,135,3.6,4.9,19,0.00,,---,0.00,VWS V14.00,2013-04-15 01:52:00,
2013-04-14 21:54:00,50.2,9.5,30.18,SSE,158,4.9,6.0,19,0.00,,---,0.00,VWS V14.00,2013-04-15 01:54:00,
2013-04-14 21:58:00,50.2,11.8,30.18,SE,135,5.8,5.8,21,0.00,,---,0.00,VWS V14.00,2013-04-15 01:58:00,
2013-04-14 21:59:00,50.2,11.8,30.18,ESE,112,2.7,5.8,21,0.00,,---,0.00,VWS V14.00,2013-04-15 01:59:00,
2013-04-14 22:00:00,50.2,11.8,30.18,SE,135,5.4,5.4,21,0.00,,---,0.00,VWS V14.00,2013-04-15 02:00:00,
2013-04-14 22:01:00,50.2,11.8,30.18,SE,135,4.9,5.4,21,0.00,,---,0.00,VWS V14.00,2013-04-15 02:01:00,
2013-04-14 22:04:00,50.2,11.8,30.18,SE,135,4.3,5.4,21,0.00,,---,0.00,VWS V14.00,2013-04-15 02:04:00,
2013-04-14 22:07:00,50.2,11.8,30.18,SE,135,4.3,6.5,21,0.00,,---,0.00,VWS V14.00,2013-04-15 02:07:00,
2013-04-14 22:08:00,50.2,11.8,30.18,SE,135,5.8,6.0,21,0.00,,---,0.00,VWS V14.00,2013-04-15 02:08:00,
2013-04-14 22:09:00,50.2,11.8,30.18,ESE,112,6.5,6.5,21,0.00,,---,0.00,VWS V14.00,2013-04-15 02:09:00,
2013-04-14 22:11:00,50.2,9.5,30.18,SSE,158,3.8,5.4,19,0.00,,---,0.00,VWS V14.00,2013-04-15 02:11:00,
2013-04-14 22:13:00,50.2,9.5,30.18,SE,135,4.0,6.3,19,0.00,,---,0.00,VWS V14.00,2013-04-15 02:13:00,
2013-04-14 22:16:00,50.2,9.5,30.18,ESE,112,5.8,5.8,19,0.00,,---,0.00,VWS V14.00,2013-04-15 02:16:00,
2013-04-14 22:17:00,50.2,11.8,30.18,ESE,112,6.5,6.7,21,0.00,,---,0.00,VWS V14.00,2013-04-15 02:17:00,
2013-04-14 22:20:00,50.2,9.5,30.18,ESE,112,5.4,5.8,19,0.00,,---,0.00,VWS V14.00,2013-04-15 02:20:00,
2013-04-14 22:21:00,50.2,9.5,30.18,SE,135,5.4,5.6,19,0.00,,---,0.00,VWS V14.00,2013-04-15 02:21:00,
2013-04-14 22:27:00,50.2,9.5,30.18,SE,135,3.1,4.7,19,0.00,,---,0.00,VWS V14.00,2013-04-15 02:27:00,
2013-04-14 22:28:00,50.2,9.5,30.18,SE,135,0.0,3.1,19,0.00,,---,0.00,VWS V14.00,2013-04-15 02:28:00,
2013-04-14 22:30:00,50.2,9.5,30.18,SSE,158,2.7,2.7,19,0.00,,---,0.00,VWS V14.00,2013-04-15 02:30:00,
2013-04-14 22:31:00,50.0,9.4,30.18,SE,135,3.8,3.8,19,0.00,,---,0.00,VWS V14.00,2013-04-15 02:31:00,
2013-04-14 22:36:00,50.0,11.6,30.18,SE,135,2.2,2.9,21,0.00,,---,0.00,VWS V14.00,2013-04-15 02:36:00,
2013-04-14 22:37:00,50.0,11.6,30.18,SE,135,2.2,3.1,21,0.00,,---,0.00,VWS V14.00,2013-04-15 02:37:00,
2013-04-14 22:41:00,49.8,11.5,30.18,SE,135,3.4,4.0,21,0.00,,---,0.00,VWS V14.00,2013-04-15 02:41:00,
2013-04-14 22:42:00,49.8,11.5,30.18,SE,135,4.9,4.9,21,0.00,,---,0.00,VWS V14.00,2013-04-15 02:42:00,
2013-04-14 22:44:00,49.8,11.5,30.18,SSE,158,2.7,4.3,21,0.00,,---,0.00,VWS V14.00,2013-04-15 02:44:00,
2013-04-14 22:46:00,49.8,11.5,30.18,ESE,112,3.4,3.4,21,0.00,,---,0.00,VWS V14.00,2013-04-15 02:46:00,
2013-04-14 22:48:00,49.8,11.5,30.18,SE,135,4.3,4.3,21,0.00,,---,0.00,VWS V14.00,2013-04-15 02:48:00,
2013-04-14 22:52:00,49.8,11.5,30.18,SE,135,4.3,4.3,21,0.00,,---,0.00,VWS V14.00,2013-04-15 02:52:00,
2013-04-14 22:55:00,49.8,11.5,30.18,SE,135,4.0,4.3,21,0.00,,---,0.00,VWS V14.00,2013-04-15 02:55:00,
2013-04-14 22:57:00,49.6,11.3,30.18,SSE,158,2.9,3.1,21,0.00,,---,0.00,VWS V14.00,2013-04-15 02:57:00,
2013-04-14 23:00:00,49.6,11.3,30.18,SSE,158,2.7,5.4,21,0.00,,---,0.00,VWS V14.00,2013-04-15 03:00:00,
2013-04-14 23:02:00,49.6,11.3,30.18,SE,135,2.7,4.0,21,0.00,,---,0.00,VWS V14.00,2013-04-15 03:02:00,
2013-04-14 23:03:00,49.6,11.3,30.18,SE,135,3.4,3.8,21,0.00,,---,0.00,VWS V14.00,2013-04-15 03:03:00,
2013-04-14 23:04:00,49.6,11.3,30.18,SE,135,4.0,5.6,21,0.00,,---,0.00,VWS V14.00,2013-04-15 03:04:00,
2013-04-14 23:08:00,49.6,11.3,30.18,SE,135,3.6,3.8,21,0.00,,---,0.00,VWS V14.00,2013-04-15 03:08:00,
2013-04-14 23:10:00,49.6,11.3,30.18,ESE,112,4.0,5.4,21,0.00,,---,0.00,VWS V14.00,2013-04-15 03:10:00,
2013-04-14 23:13:00,49.6,11.3,30.18,ESE,112,5.6,6.5,21,0.00,,---,0.00,VWS V14.00,2013-04-15 03:13:00,
2013-04-14 23:15:00,49.6,11.3,30.18,ESE,112,8.1,8.1,21,0.00,,---,0.00,VWS V14.00,2013-04-15 03:15:00,
2013-04-14 23:16:00,49.6,11.3,30.18,ESE,112,4.0,8.1,21,0.00,,---,0.00,VWS V14.00,2013-04-15 03:16:00,
2013-04-14 23:18:00,49.8,11.5,30.18,SE,135,4.5,6.0,21,0.00,,---,0.00,VWS V14.00,2013-04-15 03:18:00,
2013-04-14 23:23:00,49.6,11.3,30.18,SSE,158,3.4,6.0,21,0.00,,---,0.00,VWS V14.00,2013-04-15 03:23:00,
2013-04-14 23:26:00,49.8,11.5,30.18,SE,135,5.8,6.0,21,0.00,,---,0.00,VWS V14.00,2013-04-15 03:26:00,
2013-04-14 23:31:00,49.8,11.5,30.18,SE,135,4.3,4.3,21,0.00,,---,0.00,VWS V14.00,2013-04-15 03:31:00,
2013-04-14 23:32:00,49.6,11.3,30.18,ENE,68,8.5,8.5,21,0.00,,---,0.00,VWS V14.00,2013-04-15 03:32:00,
2013-04-14 23:36:00,49.6,11.3,30.18,ESE,112,2.5,4.7,21,0.00,,---,0.00,VWS V14.00,2013-04-15 03:36:00,
2013-04-14 23:37:00,49.6,11.3,30.18,ESE,112,4.3,7.4,21,0.00,,---,0.00,VWS V14.00,2013-04-15 03:37:00,
2013-04-14 23:38:00,49.8,11.5,30.18,ESE,112,3.6,5.8,21,0.00,,---,0.00,VWS V14.00,2013-04-15 03:38:00,
2013-04-14 23:42:00,49.6,11.3,30.18,ESE,112,4.3,5.6,21,0.00,,---,0.00,VWS V14.00,2013-04-15 03:42:00,
2013-04-14 23:43:00,49.8,11.5,30.18,SE,135,4.7,5.4,21,0.00,,---,0.00,VWS V14.00,2013-04-15 03:43:00,
2013-04-14 23:44:00,49.8,11.5,30.18,ESE,112,4.0,4.7,21,0.00,,---,0.00,VWS V14.00,2013-04-15 03:44:00,
2013-04-14 23:48:00,49.8,9.2,30.18,ESE,112,5.4,5.4,19,0.00,,---,0.00,VWS V14.00,2013-04-15 03:48:00,
2013-04-14 23:49:00,49.8,9.2,30.18,ESE,112,5.4,5.8,19,0.00,,---,0.00,VWS V14.00,2013-04-15 03:49:00,
2013-04-14 23:53:00,49.8,9.2,30.18,ESE,112,3.8,6.5,19,0.00,,---,0.00,VWS V14.00,2013-04-15 03:53:00,
2013-04-14 23:54:00,49.8,9.2,30.18,ESE,112,4.9,6.3,19,0.00,,---,0.00,VWS V14.00,2013-04-15 03:54:00,
2013-04-14 23:56:00,49.8,9.2,30.18,East,90,3.8,6.5,19,0.00,,---,0.00,VWS V14.00,2013-04-15 03:56:00,
2013-04-14 23:58:00,49.6,9.1,30.18,East,90,4.9,4.9,19,0.00,,---,0.00,VWS V14.00,2013-04-15 03:58:00,